C/2009 O2 (Catalina)                   Orbit by S. Nakano       NK 1891    (2010
)
2010/        α  (2000) δ      △      r    Daily motion  Elong. Phase    m1   天文薄明開始時
 28h JST    h  m       。  ,        AU      AU      ,     。     。      。      等     h。    A 。 
Mar. 20   23 42.99  +43 37.6    0.836   0.699   174.4/ 79    43.8   80.4    9.6   +12.8  225.0
     21   23 58.88  +44 07.8    0.827   0.698   177.6/ 82    43.8   81.1    9.5   +11.2  223.1
     22   00 15.32  +44 28.2    0.819   0.696   180.1/ 85    43.8   81.8    9.5    +9.6  221.2
     23   00 32.15  +44 38.1    0.814   0.696   181.8/ 89    43.7   82.2    9.5    +7.8  219.3
     24   00 49.18  +44 37.0    0.811   0.696   182.5/ 92    43.8   82.5    9.5    +5.9  217.5
     25   01 06.21  +44 24.7    0.809   0.696   182.4/ 96    43.8   82.6    9.5    +4.0  215.7
     26   01 23.03  +44 01.4    0.810   0.697   181.2/ 99    43.9   82.5    9.5    +2.0  214.0
     27   01 39.47  +43 27.6    0.813   0.699   179.2/103    43.9   82.3    9.5    -0.0  212.3
     28   01 55.34  +42 44.1    0.817   0.701   176.4/106    44.1   81.8    9.5    -2.0  210.8
     29   02 10.53  +41 52.0    0.824   0.704   172.8/109    44.2   81.2    9.6    -4.1  209.3
     30   02 24.95  +40 52.5    0.832   0.708   168.5/112    44.3   80.5    9.6    -6.1  207.8
     31   02 38.52  +39 46.8    0.842   0.712   163.7/115    44.5   79.6    9.6    -8.1  206.5
Apr.  1   02 51.23  +38 36.3    0.853   0.716   158.5/117    44.6   78.5    9.7 
  -10.0  205.2                    m1 = 11.5 + 5 log △ + 10.0 log r

2010/        α  (2000) δ      △      r    Daily motion  Elong. Phase    m1   天文薄明終了時
 20h JST    h  m       。  ,        AU      AU      ,     。     。      。      等     h。    A 。 
Mar. 20   23 37.85  +43 25.6    0.839   0.700   173.1/ 78    43.8   80.1    9.6    +7.3  139.5
     21   23 53.52  +43 58.7    0.830   0.698   176.6/ 81    43.8   80.9    9.5    +9.1  138.6
     22   00 09.79  +44 22.5    0.822   0.697   179.4/ 84    43.8   81.6    9.5   +10.9  137.5
     23   00 26.51  +44 36.0    0.816   0.696   181.3/ 88    43.7   82.1    9.5   +12.7  136.4
     24   00 43.49  +44 38.6    0.812   0.695   182.4/ 91    43.8   82.4    9.5   +14.4  135.1
     25   01 00.54  +44 30.1    0.810   0.696   182.5/ 95    43.8   82.6    9.5   +16.1  133.7
     26   01 17.46  +44 10.4    0.810   0.697   181.7/ 98    43.8   82.6    9.5   +17.7  132.1
     27   01 34.04  +43 40.0    0.812   0.698   180.0/102    43.9   82.4    9.5   +19.2  130.5
     28   01 50.12  +42 59.7    0.815   0.700   177.4/105    44.0   82.0    9.5   +20.6  128.8
     29   02 05.55  +42 10.3    0.821   0.703   174.1/108    44.1   81.4    9.5   +21.9  127.0
     30   02 20.23  +41 13.1    0.829   0.706   170.0/111    44.3   80.7    9.6   +23.1  125.2
     31   02 34.09  +40 09.3    0.838   0.710   165.4/114    44.4   79.9    9.6   +24.1  123.3
Apr.  1   02 47.09  +39 00.3    0.849   0.715   160.3/116    44.6   78.9    9.7   +25.0  121.4
      2   02 59.23  +37 47.2    0.862   0.720   154.9/119    44.7   77.8    9.7   +25.7  119.5
      3   03 10.51  +36 31.1    0.876   0.725   149.2/121    44.9   76.6    9.8   +26.3  117.6
      4   03 20.98  +35 13.3    0.892   0.731   143.3/123    45.0   75.4    9.9   +26.7  115.7
      5   03 30.67  +33 54.4    0.909   0.738   137.4/124    45.2   74.0   10.0   +27.0  113.9
      6   03 39.64  +32 35.4    0.926   0.745   131.6/126    45.3   72.6   10.1   +27.1  112.2
      7   03 47.92  +31 16.8    0.946   0.752   125.8/128    45.4   71.2   10.1   +27.2  110.5
      8   03 55.59  +29 59.2    0.965   0.760   120.1/129    45.4   69.8   10.2   +27.1  108.9
      9   04 02.69  +28 42.9    0.986   0.769   114.6/130    45.5   68.3   10.3   +26.9  107.4
     10   04 09.26  +27 28.3    1.008   0.777   109.3/131    45.5   66.8   10.4   +26.7  106.0
     11   04 15.36  +26 15.6    1.030   0.787   104.2/132    45.5   65.4   10.5   +26.3  104.7
     12   04 21.02  +25 04.9    1.053   0.796    99.4/133    45.5   63.9   10.6   +25.9  103.5
     13   04 26.30  +23 56.4    1.076   0.806    94.8/134    45.4   62.4   10.7   +25.4  102.3
     14   04 31.22  +22 50.0    1.100   0.816    90.4/135    45.4   61.0   10.8   +24.8  101.3
     15   04 35.81  +21 45.9    1.124   0.827    86.3/136    45.3   59.6   10.9   +24.2  100.3
     16   04 40.12  +20 44.0    1.149   0.837    82.4/136    45.2   58.2   11.0   +23.5   99.5
     17   04 44.15  +19 44.3    1.173   0.848    78.8/137    45.0   56.8   11.1   +22.8   98.7
     18   04 47.95  +18 46.7    1.198   0.860    75.3/137    44.9   55.5   11.2   +22.0   97.9
     19   04 51.52  +17 51.2    1.223   0.871    72.1/138    44.7   54.2   11.3   +21.2   97.3
     20   04 54.90  +16 57.7    1.249   0.883    69.1/138    44.5   52.9   11.4   +20.4   96.7
     21   04 58.09  +16 06.1    1.274   0.895    66.2/139    44.3   51.7   11.5   +19.6   96.2
     22   05 01.11  +15 16.4    1.299   0.907    63.5/139    44.1   50.5   11.6   +18.7   95.7
     23   05 03.99  +14 28.4    1.325   0.920    61.0/139    43.9   49.3   11.7   +17.8   95.3
     24   05 06.72  +13 42.1    1.350   0.932    58.7/139    43.7   48.1   11.8   +16.9   95.0
     25   05 09.33  +12 57.4    1.376   0.945    56.5/140    43.4   47.0   11.9   +16.0   94.7
     26   05 11.82  +12 14.3    1.401   0.958    54.4/140    43.1   45.9   12.0   +15.1   94.4
     27   05 14.21  +11 32.6    1.426   0.971    52.5/140    42.9   44.8   12.1   +14.1   94.2
     28   05 16.50  +10 52.3    1.451   0.984    50.7/140    42.6   43.8   12.2   +13.2   94.1
     29   05 18.69  +10 13.4    1.476   0.998    49.0/140    42.3   42.8   12.3   +12.2   93.9
     30   05 20.81  +09 35.6    1.501   1.011    47.4/140    42.0   41.9   12.4   +11.3   93.8
May   1   05 22.85  +08 59.1    1.526   1.025    45.9/140    41.8   40.9   12.5   +10.3   93.8
                    m1 = 11.5 + 5 log △ + 10.0 log r
NAKANO
         **** Don't distribute anyone except personal use only ****
           (C) Copyright 2010 Orbit.Astro.Assoc./ComputingSection
write mail from CFAD0::NAKANO on 2010-03-20 08:15:12(JST).
 
  
    C/2009 O2 (Catalina)
Epoch 2010 Mar. 25.0 TT = JDT 2455280.5  
T 2010 Mar. 24.40699 TT                                 Nakano
q   0.6953669            (2000.0)            P               Q
z  +0.0036341      Peri.  133.40707     -0.61482379     -0.30747246
 +/-0.0000087      Node   310.23082     +0.07370467     +0.89444095
e   0.9974730      Incl.  107.95712     +0.78521292     -0.32470920
From 189 observations 2009 July 27-2010 Jan. 25, mean residual 0".66.
   (1/a)org.= +0.000314, (1/a)fut.= +0.004089 (+/-0.000009), Q= 6.
   The comet has passed 0.24 AU from Jupiter on 2009 Apr. 1 and will
   pass 0.81 AU from Earth on 2010 Mar. 25 UT.
   K. Kadota, Ageo, gives the total CCD magnitude = 13.2 on 2010 Jan. 24 
   and 13.0 on Jan. 25 with bright coma (about 1'.3).

NAKANO
         **** Don't distribute anyone except personal use only ****
           (C) Copyright 2010 Orbit.Astro.Assoc./ComputingSection
write mail from CFAD0::NAKANO on 2010-01-27 08:20:36(JST).
 
◎C/2009 O2の軌道と予報位置   [From 天文ガイド3月号]

●カテリナ彗星  (2009 O2)
 上尾の門田健一氏は,先月号で紹介した明け方の空,東の低空にあるこの彗星を
2010年1月24日に再観測に成功し,翌25日にこれを確認しました.彗星には,それぞ
れ,1'.1と1'.3の明るいコマがあり,そのCCD全光度は,13.2等と13.0等とのことで
す.この門田氏の観測によって,彗星が3月には8等級まで明るくなる期待が持てる
ことになります.なお,彗星は,近日点通過頃の3月25日に地球に0.81 AUまで接近
します.次の軌道(NK 1874)は,2009年7月27日から2009年1月25日までに行なわ
れた189個の観測から計算したものです.彗星は,2009年4月1日に木星に0.24 AUま
で接近していました.観測計画を立てるため,2010年3月までの位置予報を掲げます.
なお,彗星は,3月中旬以後は,夕方の空に見えるようになります.参考のために,
夕方の空での地平高度は,4月1日には,天文薄明終了時に25゚になります.

             Epoch = 2010 Mar. 25.0 TT
   T = 2010 Mar. 24.40699 TT    ω = 133.40707
   e =   0.9974730              Ω = 310.23082    (2000.0)
   q =   0.6953669 AU           i = 107.95712
   1/a=  +0.000314 (origin)   +0.004089 (future)   Q = 6


【経路図F入る】

